TimeEST,TemperatureF,Dew PointF,Humidity,Sea Level PressureIn,VisibilityMPH,Wind Direction,Wind SpeedMPH,Gust SpeedMPH,PrecipitationIn,Events,Conditions,WindDirDegrees,DateUTC
12:54 AM,37.0,30.9,79,29.71,10.0,SW,5.8,-,0.00,,Overcast,230,2013-02-12 05:54:00
1:54 AM,37.9,30.9,76,29.72,10.0,West,5.8,-,N/A,,Overcast,260,2013-02-12 06:54:00
2:54 AM,39.0,30.0,70,29.73,10.0,West,5.8,-,N/A,,Overcast,270,2013-02-12 07:54:00
3:54 AM,39.0,28.0,65,29.74,10.0,West,6.9,-,N/A,,Overcast,260,2013-02-12 08:54:00
4:54 AM,39.0,26.1,60,29.75,10.0,WSW,8.1,-,N/A,,Overcast,250,2013-02-12 09:54:00
5:54 AM,39.0,25.0,57,29.75,10.0,West,5.8,-,N/A,,Overcast,260,2013-02-12 10:54:00
6:54 AM,39.0,25.0,57,29.77,10.0,West,8.1,-,N/A,,Overcast,260,2013-02-12 11:54:00
7:54 AM,37.9,26.1,62,29.79,10.0,West,9.2,-,N/A,,Overcast,260,2013-02-12 12:54:00
8:54 AM,39.9,25.0,55,29.81,10.0,West,11.5,18.4,N/A,,Overcast,270,2013-02-12 13:54:00
9:54 AM,39.9,24.1,53,29.83,10.0,West,11.5,-,N/A,,Overcast,280,2013-02-12 14:54:00
10:54 AM,39.9,24.1,53,29.85,10.0,WNW,13.8,23.0,N/A,,Overcast,300,2013-02-12 15:54:00
11:54 AM,39.9,24.1,53,29.86,10.0,WNW,13.8,24.2,N/A,,Overcast,290,2013-02-12 16:54:00
12:54 PM,39.9,23.0,51,29.87,10.0,West,12.7,18.4,N/A,,Overcast,280,2013-02-12 17:54:00
1:54 PM,39.9,23.0,51,29.88,10.0,WNW,12.7,20.7,N/A,,Overcast,290,2013-02-12 18:54:00
2:54 PM,39.9,23.0,51,29.87,10.0,WNW,9.2,-,N/A,,Overcast,290,2013-02-12 19:54:00
3:54 PM,39.0,23.0,53,29.86,10.0,Variable,5.8,21.9,N/A,,Overcast,0,2013-02-12 20:54:00
4:54 PM,37.9,23.0,55,29.83,10.0,WNW,5.8,-,N/A,,Overcast,300,2013-02-12 21:54:00
5:54 PM,37.9,23.0,55,29.90,10.0,West,6.9,-,N/A,,Overcast,270,2013-02-12 22:54:00
6:54 PM,37.0,23.0,57,29.94,10.0,WSW,8.1,-,N/A,,Overcast,250,2013-02-12 23:54:00
7:54 PM,37.0,21.9,54,29.93,10.0,West,5.8,-,N/A,,Overcast,260,2013-02-13 00:54:00
8:54 PM,37.0,21.9,54,29.92,10.0,WNW,9.2,19.6,N/A,,Overcast,290,2013-02-13 01:54:00
9:54 PM,37.0,21.9,54,29.90,10.0,WNW,15.0,24.2,N/A,,Overcast,300,2013-02-13 02:54:00
10:54 PM,36.0,21.9,57,29.90,10.0,WNW,8.1,-,N/A,,Overcast,290,2013-02-13 03:54:00
11:54 PM,36.0,21.0,55,29.90,10.0,NW,9.2,-,N/A,,Overcast,310,2013-02-13 04:54:00